TimeEST,TemperatureF,Dew PointF,Humidity,Sea Level PressureIn,VisibilityMPH,Wind Direction,Wind SpeedMPH,Gust SpeedMPH,PrecipitationIn,Events,Conditions,WindDirDegrees,DateUTC
12:15 AM,28.4,28.4,100,30.28,1.8,Calm,Calm,-,N/A,,Overcast,0,2013-12-09 05:15:00
12:35 AM,30.2,28.4,93,30.28,2.0,Calm,Calm,-,0.01,,Overcast,0,2013-12-09 05:35:00
12:55 AM,30.2,28.4,93,30.26,2.5,Calm,Calm,-,0.01,Snow,Snow,0,2013-12-09 05:55:00
1:15 AM,30.2,28.4,93,30.24,3.0,Calm,Calm,-,0.02,Snow,Light Snow,0,2013-12-09 06:15:00
1:35 AM,30.2,28.4,93,30.24,4.0,North,3.5,-,0.03,,Overcast,10,2013-12-09 06:35:00
1:55 AM,30.2,28.4,93,30.21,5.0,Calm,Calm,-,N/A,,Overcast,0,2013-12-09 06:55:00
2:15 AM,30.2,28.4,93,30.20,3.0,Calm,Calm,-,0.01,,Overcast,0,2013-12-09 07:15:00
2:35 AM,30.2,28.4,93,30.16,2.0,East,4.6,-,0.02,Snow,Light Snow,80,2013-12-09 07:35:00
2:55 AM,30.2,28.4,93,30.16,5.0,ENE,4.6,-,N/A,,Overcast,70,2013-12-09 07:55:00
3:20 AM,30.2,30.2,100,30.19,5.0,WNW,4.6,-,0.01,,Overcast,300,2013-12-09 08:20:00
3:40 AM,30.2,28.4,93,30.16,1.5,Calm,Calm,-,0.02,Snow,Light Snow,0,2013-12-09 08:40:00
4:00 AM,30.2,28.4,93,30.15,2.5,Calm,Calm,-,N/A,,Overcast,0,2013-12-09 09:00:00
4:20 AM,30.2,28.4,93,30.14,2.5,Calm,Calm,-,N/A,,Overcast,0,2013-12-09 09:20:00
4:40 AM,30.2,28.4,93,30.14,2.5,Calm,Calm,-,0.01,,Overcast,0,2013-12-09 09:40:00
5:00 AM,30.2,30.2,100,30.15,3.0,Calm,Calm,-,N/A,,Overcast,0,2013-12-09 10:00:00
5:20 AM,30.2,30.2,100,30.14,2.5,Calm,Calm,-,N/A,,Overcast,0,2013-12-09 10:20:00
5:40 AM,30.2,30.2,100,30.12,1.5,Calm,Calm,-,N/A,,Overcast,0,2013-12-09 10:40:00
6:00 AM,30.2,28.4,93,30.11,2.5,Calm,Calm,-,N/A,,Overcast,0,2013-12-09 11:00:00
6:20 AM,30.2,28.4,93,30.12,3.0,Calm,Calm,-,0.01,Snow,Light Snow,0,2013-12-09 11:20:00
6:40 AM,30.2,30.2,100,30.11,3.0,Calm,Calm,-,0.01,,Overcast,0,2013-12-09 11:40:00
7:00 AM,30.2,28.4,93,30.10,4.0,Calm,Calm,-,N/A,,Overcast,0,2013-12-09 12:00:00
7:20 AM,30.2,30.2,100,30.09,1.8,Calm,Calm,-,N/A,,Overcast,0,2013-12-09 12:20:00
7:40 AM,30.2,28.4,93,30.10,2.5,Calm,Calm,-,N/A,,Overcast,0,2013-12-09 12:40:00
8:00 AM,30.2,28.4,93,30.08,3.0,Calm,Calm,-,N/A,,Overcast,0,2013-12-09 13:00:00
8:20 AM,30.2,30.2,100,30.11,2.5,West,3.5,-,N/A,,Overcast,260,2013-12-09 13:20:00
8:40 AM,30.2,30.2,100,30.09,1.8,Calm,Calm,-,N/A,,Overcast,0,2013-12-09 13:40:00
9:00 AM,30.2,30.2,100,30.10,1.5,Calm,Calm,-,N/A,,Overcast,0,2013-12-09 14:00:00
9:20 AM,30.2,28.4,93,30.09,1.5,Calm,Calm,-,N/A,,Overcast,0,2013-12-09 14:20:00
9:40 AM,30.2,28.4,93,30.11,1.2,Calm,Calm,-,N/A,,Overcast,0,2013-12-09 14:40:00
10:00 AM,30.2,30.2,100,30.09,2.0,Calm,Calm,-,N/A,,Overcast,0,2013-12-09 15:00:00
10:20 AM,30.2,30.2,100,30.11,2.0,West,3.5,-,N/A,,Overcast,270,2013-12-09 15:20:00
10:40 AM,30.2,28.4,93,30.08,2.0,Calm,Calm,-,N/A,,Overcast,0,2013-12-09 15:40:00
11:00 AM,30.2,30.2,100,30.08,2.5,Calm,Calm,-,N/A,,Overcast,0,2013-12-09 16:00:00
11:20 AM,32.0,30.2,93,30.08,2.5,SW,3.5,-,N/A,,Overcast,220,2013-12-09 16:20:00
12:00 PM,32.0,30.2,93,30.03,2.5,South,4.6,-,N/A,,Overcast,170,2013-12-09 17:00:00
12:40 PM,33.8,30.2,87,30.03,3.0,SSW,3.5,-,N/A,,Overcast,210,2013-12-09 17:40:00
1:20 PM,33.8,32.0,93,30.02,2.0,WNW,4.6,-,N/A,,Overcast,300,2013-12-09 18:20:00
1:40 PM,33.8,32.0,93,30.03,1.5,West,3.5,-,N/A,,Overcast,270,2013-12-09 18:40:00
2:00 PM,33.8,32.0,93,30.01,4.0,SW,4.6,-,N/A,,Overcast,220,2013-12-09 19:00:00
2:20 PM,33.8,32.0,93,30.03,5.0,West,5.8,-,N/A,,Overcast,260,2013-12-09 19:20:00
2:40 PM,33.8,32.0,93,30.03,1.5,WNW,3.5,-,N/A,,Overcast,300,2013-12-09 19:40:00
3:00 PM,33.8,32.0,93,30.03,1.8,West,3.5,-,N/A,,Overcast,260,2013-12-09 20:00:00
3:20 PM,33.8,30.2,87,30.02,1.2,Calm,Calm,-,N/A,,Overcast,0,2013-12-09 20:20:00
3:40 PM,32.0,30.2,93,30.02,0.5,Calm,Calm,-,N/A,Fog,Fog,0,2013-12-09 20:40:00
4:00 PM,32.0,30.2,93,30.03,0.2,Calm,Calm,-,N/A,Fog,Fog,0,2013-12-09 21:00:00
4:20 PM,32.0,30.2,93,30.03,0.2,Calm,Calm,-,N/A,Fog,Fog,0,2013-12-09 21:20:00
4:40 PM,32.0,30.2,93,30.03,0.2,SW,3.5,-,N/A,Fog,Fog,230,2013-12-09 21:40:00
5:00 PM,32.0,30.2,93,30.03,0.2,Calm,Calm,-,N/A,Fog,Fog,0,2013-12-09 22:00:00
5:20 PM,32.0,30.2,93,30.03,0.2,Calm,Calm,-,N/A,Fog,Fog,0,2013-12-09 22:20:00
5:40 PM,32.0,30.2,93,30.03,0.2,WSW,3.5,-,N/A,Fog,Fog,250,2013-12-09 22:40:00
6:00 PM,30.2,30.2,100,30.04,0.2,Calm,Calm,-,N/A,Fog,Light Freezing Fog,0,2013-12-09 23:00:00
6:20 PM,30.2,30.2,100,30.05,0.2,West,3.5,-,N/A,Fog,Light Freezing Fog,260,2013-12-09 23:20:00
6:40 PM,30.2,28.4,93,30.06,0.2,Calm,Calm,-,N/A,Fog,Light Freezing Fog,0,2013-12-09 23:40:00
7:00 PM,30.2,28.4,93,30.06,0.2,Calm,Calm,-,N/A,Fog,Light Freezing Fog,0,2013-12-10 00:00:00
7:20 PM,30.2,28.4,93,30.07,0.2,Calm,Calm,-,N/A,Fog,Light Freezing Fog,0,2013-12-10 00:20:00
7:40 PM,30.2,28.4,93,30.08,0.2,Calm,Calm,-,N/A,Fog,Light Freezing Fog,0,2013-12-10 00:40:00
8:00 PM,30.2,28.4,93,30.08,0.2,Calm,Calm,-,N/A,Fog,Light Freezing Fog,0,2013-12-10 01:00:00
8:20 PM,30.2,30.2,100,30.07,0.2,Calm,Calm,-,N/A,Fog,Light Freezing Fog,0,2013-12-10 01:20:00
8:40 PM,30.2,30.2,100,30.07,0.2,South,3.5,-,N/A,Fog,Light Freezing Fog,190,2013-12-10 01:40:00
9:00 PM,30.2,28.4,93,30.08,0.2,Calm,Calm,-,N/A,Fog,Light Freezing Fog,0,2013-12-10 02:00:00
9:20 PM,30.2,28.4,93,30.07,0.2,Calm,Calm,-,N/A,Fog,Light Freezing Fog,0,2013-12-10 02:20:00
9:40 PM,30.2,28.4,93,30.08,0.2,Calm,Calm,-,N/A,Fog,Light Freezing Fog,0,2013-12-10 02:40:00
10:00 PM,30.2,28.4,93,30.08,0.2,Calm,Calm,-,N/A,Fog,Light Freezing Fog,0,2013-12-10 03:00:00
10:20 PM,30.2,28.4,93,30.08,0.2,Calm,Calm,-,N/A,Fog,Light Freezing Fog,0,2013-12-10 03:20:00
10:40 PM,28.4,28.4,100,30.07,0.2,Calm,Calm,-,N/A,Fog,Light Freezing Fog,0,2013-12-10 03:40:00
11:00 PM,28.4,26.6,93,30.06,0.5,Calm,Calm,-,N/A,Fog,Light Freezing Fog,0,2013-12-10 04:00:00
11:20 PM,28.4,28.4,100,30.06,5.0,WNW,3.5,-,N/A,,Scattered Clouds,300,2013-12-10 04:20:00
11:40 PM,30.2,28.4,93,30.05,7.0,WNW,3.5,-,N/A,,Clear,300,2013-12-10 04:40:00